San Diego Brown, CA

8:56 PM PDT on May 28, 2017 (GMT -0700)
Brown Municipal

Weather History for KSDM - January, 2014

Change the Weather History Date:

Monday, January 6, 2014

  Actual Average Record
Temperature  
Mean Temperature 60 °F 55 °F  
Max Temperature 75 °F 66 °F 90 °F (2006)
Min Temperature 46 °F 44 °F 32 °F (1997)
Degree Days  
Heating Degree Days 4 10  
Month to date heating degree days 60  
Since 1 July heating degree days 646  
Cooling Degree Days 0 0  
Month to date cooling degree days 0  
Year to date cooling degree days 0  
Growing Degree Days 10 (Base 50)    
Moisture  
Dew Point 12 °F    
Average Humidity 16    
Maximum Humidity 31    
Minimum Humidity 7    
Precipitation  
Precipitation 0.00 in 0.10 in 0.69 in (1959)
Month to date precipitation 0.60  
Year to date precipitation 0.60  
Sea Level Pressure  
Sea Level Pressure 30.13 in    
Wind  
Wind Speed 3 mph (NE)    
Max Wind Speed 8 mph    
Max Gust Speed -    
Visibility 10 miles    
Events      
T = Trace of Precipitation, MM = Missing Value Source: NWS Daily Summary

Daily Weather History Graph

Daily Weather History Graph

Search for Another Location

Airport or City:

Trip Planner

Search our weather history database for the weather conditions in past years. The results will help you decide how hot, cold, wet, or windy it might be!

Date:

Astronomy

Jan. 06, 2014 Rise Set
Actual Time 6:50 AM PST 4:57 PM PST
Civil Twilight 6:23 AM PST 5:24 PM PST
Nautical Twilight 5:53 AM PST 5:54 PM PST
Astronomical Twilight 5:23 AM PST 6:24 PM PST
Moon 10:29 AM PST (1/6) 11:12 PM PST (1/6)
Length of Visible Light 11h 00m
Length of Day
10h 06m
Waxing Crescent, 36% of the Moon is Illuminated
Jan 6
Waxing Crescent
Jan 7
First Quarter
Jan 15
Full
Jan 23
Last Quarter
Jan 30
New

Hourly Weather History & Observations

Time (PST) Temp. Dew Point Humidity Pressure Visibility Wind Dir Wind Speed Gust Speed Precip Events Conditions
12:53 AM 60.1 °F 3.9 °F 11% 30.12 in 10.0 mi Calm Calm - N/A   Clear
1:53 AM 48.0 °F 10.9 °F 22% 30.12 in 10.0 mi East 4.6 mph - N/A   Clear
2:53 AM 48.9 °F 9.0 °F 20% 30.13 in 10.0 mi East 4.6 mph - N/A   Clear
3:53 AM 59.0 °F 5.0 °F 12% 30.12 in 10.0 mi ESE 4.6 mph - N/A   Clear
4:53 AM 46.9 °F 8.1 °F 21% 30.12 in 10.0 mi SE 3.5 mph - N/A   Clear
5:53 AM 57.9 °F 3.9 °F 11% 30.12 in 10.0 mi Calm Calm - N/A   Clear
6:53 AM 48.9 °F 8.1 °F 19% 30.14 in 10.0 mi Calm Calm - N/A   Clear
7:53 AM 63.0 °F 5.0 °F 10% 30.16 in 10.0 mi WNW 3.5 mph - N/A   Clear
8:53 AM 64.9 °F 8.1 °F 11% 30.19 in 10.0 mi NW 3.5 mph - N/A   Clear
9:53 AM 69.1 °F 10.0 °F 10% 30.20 in 10.0 mi Calm Calm - N/A   Clear
10:53 AM 72.0 °F 5.0 °F 7% 30.17 in 10.0 mi Variable 3.5 mph - N/A   Clear
11:53 AM 73.9 °F 6.1 °F 7% 30.13 in 10.0 mi Calm Calm - N/A   Clear
12:53 PM 75.9 °F 10.0 °F 8% 30.09 in 10.0 mi Variable 3.5 mph - N/A   Clear
1:53 PM 75.9 °F 14.0 °F 10% 30.09 in 10.0 mi NW 5.8 mph - N/A   Clear
2:53 PM 73.0 °F 8.1 °F 8% 30.10 in 5.0 mi WNW 8.1 mph - N/A   Haze
3:53 PM 72.0 °F 9.0 °F 9% 30.10 in 10.0 mi NW 5.8 mph - N/A   Clear
4:53 PM 68.0 °F 21.0 °F 17% 30.12 in 10.0 mi WNW 5.8 mph - N/A   Clear
5:53 PM 63.0 °F 19.9 °F 19% 30.10 in 10.0 mi Calm Calm - N/A   Clear
6:53 PM 57.9 °F 19.0 °F 22% 30.14 in 10.0 mi Calm Calm - N/A   Clear
7:53 PM 57.0 °F 24.1 °F 28% 30.14 in 10.0 mi East 3.5 mph - N/A   Clear
8:53 PM 57.9 °F 27.0 °F 31% 30.12 in 10.0 mi SSE 4.6 mph - N/A   Clear
9:53 PM 53.1 °F 19.0 °F 26% 30.12 in 10.0 mi ESE 4.6 mph - N/A   Clear
10:53 PM 52.0 °F 16.0 °F 24% 30.11 in 10.0 mi Calm Calm - N/A   Clear
11:53 PM 54.0 °F 12.0 °F 19% 30.10 in 10.0 mi ENE 3.5 mph - N/A   Clear